Regional Weather Roundup
Issued by NWS State College, PA

Home | Current Version | Previous Version | Text Only | Print | Product List | Glossary On
Versions: 1 2 3 4 5 6 7 8 9 10 11 12 13 14 15 16 17 18 19 20 21 22 23 24 25 26 27 28 29 30 31 32 33 34 35 36 37 38 39 40 41 42 43 44 45 46 47 48 49 50
000
ASUS41 KCTP 250210
RWRCTP

REGIONAL WEATHER ROUNDUP
NATIONAL WEATHER SERVICE STATE COLLEGE PA
1000 PM EDT SUN MAY 24 2015

Note: "fair" indicates few or no clouds below 12,000 feet with no
significant weather and/or obstructions to visibility.

* = STATION THAT DOES NOT REPORT PRECIPITATION /E.G. RAIN...SNOW...ETC/
    THUNDER OR FOG.

PAZ002>004-007>009-013>016-020>023-029>032-250300-
WESTERN PENNSYLVANIA

CITY           SKY/WX    TMP DP  RH WIND       PRES   REMARKS
ERIE           CLOUDY    68  51  54 S5        30.17S
MEADVILLE      CLOUDY    68  45  43 CALM      30.21R
FRANKLIN*      CLOUDY    68  45  42 SE6       30.23R
NEW CASTLE     FAIR      64  51  62 CALM      30.20S
BEAVER COUNTY  NOT AVBL
BUTLER*        CLEAR     66  45  45 SE6       30.22F
PITTSBURGH INT PTCLDY    71  46  40 CALM      30.20S
PITTSBURGH     PTCLDY    73  38  27 SE5       30.20S
INDIANA*       MOCLDY    63  50  63 E5        30.27S
LATROBE        PTCLDY    66  48  52 CALM      30.24S
WASHINGTON CO* CLEAR     59  52  77 CALM      30.23R
$$

PAZ004>006-010>012-017>019-024>028-033>037-041-042-045-046-049>053-250300-
CENTRAL PENNSYLVANIA

CITY           SKY/WX    TMP DP  RH WIND       PRES   REMARKS
BRADFORD       CLOUDY    61  49  64 CALM      30.25F
DUBOIS         MOCLDY    68  46  45 SE5       30.24S
CLEARFIELD     PTCLDY    62  50  64 N6        30.25S
JOHNSTOWN      PTCLDY    67  42  40 SE3       30.27S
ALTOONA        PTCLDY    68  44  42 S8        30.26S
STATE COLLEGE  NOT AVBL
WILLIAMSPORT   CLOUDY    67  50  54 CALM      30.22R
SELINSGROVE    CLOUDY    65  54  67 SW3       30.24R
FT INDIANTOWN  CLOUDY    65  49  56 NE2       30.26R HAZE
CAPITAL CITY   CLOUDY    73  44  35 S7        30.25R
HARRISBURG     CLOUDY    71  53  52 S6        30.24R
YORK           CLOUDY    70  52  52 VRB5      30.26R
$$

PAZ038>040-043-044-047-048-054-055-060>062-067>071-250300-
EASTERN PENNSYLVANIA

CITY           SKY/WX    TMP DP  RH WIND       PRES   REMARKS
SCRANTON       MOCLDY    68  44  42 S3        30.25R
MOUNT POCONO   MOCLDY    58  43  57 W5        30.30R
ALLENTOWN      MOCLDY    71  41  33 SW5       30.26R
QUAKERTOWN*    MOCLDY    66  46  48 SW3       30.28R
READING        MOCLDY    70  43  37 S6        30.25R
LANCASTER      MOCLDY    69  55  60 S6        30.26R
COATESVILLE    PTCLDY    68  55  64 CALM      30.29S
POTTSTOWN      PTCLDY    70  53  54 S3        30.29R
BLUE BELL      PTCLDY    64  50  59 CALM      30.27R
DOYLESTOWN     MOCLDY    68  45  43 S3        30.27R
WILLOW GROVE   NOT AVBL
NORTH PHILA    MOCLDY    72  50  45 S5        30.29R
PHILADELPHIA   MOCLDY    69  54  58 S7        30.28R
$$



USA.gov is the U.S. government's official web portal to all federal, state and local government web resources and services.